Sigfox identifier Datetime Temperature Humidity SNR
003911E7 2019-03-18 13:18:49 20.7 27 21.7
003911E7 2019-03-18 12:46:42 20.7 27 20.6
003911E7 2019-03-18 12:14:35 20.7 27 20.4
003911E7 2019-03-18 11:42:28 20.7 27 20.1
003911E7 2019-03-18 11:10:21 20.6 27 20
003911E7 2019-03-18 10:38:14 20.6 27 19.8
003911E7 2019-03-18 10:06:07 20.6 27 19.8
003911E7 2019-03-18 09:34:02 20.6 27 19.9
003911E7 2019-03-18 09:01:56 20.5 27 19.8
003911E7 2019-03-18 08:29:50 20.5 27 19.9
003911E7 2019-03-18 07:57:44 20.5 27 19.7
003911E7 2019-03-18 07:25:39 20.5 27 19.5
003911E7 2019-03-18 06:53:32 20.6 27 19.2
003911E7 2019-03-18 06:21:26 20.6 27 19
003911E7 2019-03-18 05:49:18 20.6 27 18.8
003911E7 2019-03-18 05:17:11 20.6 27 18.7
003911E7 2019-03-18 04:45:07 20.5 27 18.5
003911E7 2019-03-18 04:12:59 20.5 27 18.6
003911E7 2019-03-18 03:40:54 20.5 26 18.3
003911E7 2019-03-18 03:08:50 20.5 26 18.2
003911E7 2019-03-18 02:36:45 20.5 26 18.1
003911E7 2019-03-18 02:04:40 20.5 26 18.5
003911E7 2019-03-18 01:32:35 20.5 26 18.3
003911E7 2019-03-18 01:00:29 20.5 26 18
003911E7 2019-03-18 00:28:24 20.5 26 18.3
003911E7 2019-03-17 23:56:19 20.5 26 18.6
003911E7 2019-03-17 23:24:11 20.5 26 18.3
003911E7 2019-03-17 22:52:05 20.5 26 18.5
003911E7 2019-03-17 22:19:26 20.5 26 18.9
003911E7 2019-03-17 21:47:19 20.5 26 19
003911E7 2019-03-17 21:15:15 20.5 26 19.2
003911E7 2019-03-17 20:43:07 20.5 26 19.1
003911E7 2019-03-17 20:11:02 20.5 26 19.3
003911E7 2019-03-17 19:38:55 20.5 26 19.6
003911E7 2019-03-17 19:06:47 20.5 26 19.6
003911E7 2019-03-17 18:34:41 20.5 26 19.7
003911E7 2019-03-17 18:02:35 20.5 26 19.8
003911E7 2019-03-17 17:30:29 20.6 26 20
003911E7 2019-03-17 16:58:23 20.5 26 20.1
003911E7 2019-03-17 16:26:17 20.6 26 20.3
003911E7 2019-03-17 15:54:11 20.6 26 20.4
003911E7 2019-03-17 15:22:06 20.6 26 20.5
003911E7 2019-03-17 14:50:01 20.6 26 20.4
003911E7 2019-03-17 14:17:55 20.6 26 20.6
003911E7 2019-03-17 13:45:50 20.6 26 20.6
003911E7 2019-03-17 13:13:46 20.6 26 20.6
003911E7 2019-03-17 12:41:40 20.6 26 20.4
003911E7 2019-03-17 12:09:36 20.6 26 20.4
003911E7 2019-03-17 11:37:34 20.6 26 20.5
003911E7 2019-03-17 11:05:30 20.6 26 20.6
003911E7 2019-03-17 10:33:26 20.6 26 20.5
003911E7 2019-03-17 10:01:22 20.5 26 20.6
003911E7 2019-03-17 09:29:18 20.6 26 20.4
003911E7 2019-03-17 08:57:14 20.5 26 20.2
003911E7 2019-03-17 08:25:10 20.6 26 20.3
003911E7 2019-03-17 07:53:05 20.5 26 21.5
003911E7 2019-03-17 07:21:00 20.6 26 21.5
003911E7 2019-03-17 06:48:55 20.5 26 21.5
003911E7 2019-03-17 06:16:50 20.5 26 21.4
003911E7 2019-03-17 05:44:43 20.5 26 21.4
003911E7 2019-03-17 05:12:37 20.5 26 21.3
003911E7 2019-03-17 04:40:32 20.5 26 21.3
003911E7 2019-03-17 04:08:26 20.6 26 21.2
003911E7 2019-03-17 03:36:21 20.6 26 21.3
003911E7 2019-03-17 03:04:14 20.6 26 21.3
003911E7 2019-03-17 02:32:11 20.6 26 22.3
003911E7 2019-03-17 02:00:03 20.6 26 22.3
003911E7 2019-03-17 01:27:58 20.6 26 22.3
003911E7 2019-03-17 00:55:52 20.6 26 22.2
003911E7 2019-03-17 00:23:47 20.5 26 22.3
003911E7 2019-03-16 23:51:42 20.6 26 22.1
003911E7 2019-03-16 23:19:37 20.5 26 22.1
003911E7 2019-03-16 22:47:31 20.5 26 21.9
003911E7 2019-03-16 22:15:26 20.6 26 21.9
003911E7 2019-03-16 21:43:20 20.6 26 21.7
003911E7 2019-03-16 21:11:14 20.6 26 21.7
003911E7 2019-03-16 20:39:07 20.6 26 22.6
003911E7 2019-03-16 20:07:01 20.6 26 22.6
003911E7 2019-03-16 19:34:23 20.6 26 22.7
003911E7 2019-03-16 19:02:21 20.6 26 22.7
003911E7 2019-03-16 18:30:18 20.6 26 22.7
003911E7 2019-03-16 17:58:12 20.6 26 22.6
003911E7 2019-03-16 17:26:07 20.6 26 22.5
003911E7 2019-03-16 16:54:02 20.6 26 22.5
003911E7 2019-03-16 16:21:56 20.6 26 22.5
003911E7 2019-03-16 15:49:50 20.6 26 22.6
003911E7 2019-03-16 15:17:45 20.6 26 22.6
003911E7 2019-03-16 14:45:40 20.6 26 22.5
003911E7 2019-03-16 14:13:34 20.6 26 22.5
003911E7 2019-03-16 13:41:30 20.6 26 21.5
003911E7 2019-03-16 13:09:25 20.6 26 21.5
003911E7 2019-03-16 12:37:22 20.6 26 21.5
003911E7 2019-03-16 12:05:18 20.6 26 21.6
003911E7 2019-03-16 11:33:14 20.6 26 21.5
003911E7 2019-03-16 11:01:10 20.6 26 21.5
003911E7 2019-03-16 10:29:03 20.6 26 21.6
003911E7 2019-03-16 09:56:59 20.6 26 21.8
003911E7 2019-03-16 09:24:55 20.6 26 21.9
003911E7 2019-03-16 08:52:51 20.6 26 21.9
003911E7 2019-03-16 08:20:47 20.6 26 21.9
003911E7 2019-03-16 07:48:43 20.6 26 20.8
003911E7 2019-03-16 07:16:37 20.6 26 20.8
003911E7 2019-03-16 06:44:32 20.6 26 21
003911E7 2019-03-16 06:12:26 20.6 26 21.1
003911E7 2019-03-16 05:40:22 20.6 26 19.6
003911E7 2019-03-16 05:08:18 20.6 26 19.8
003911E7 2019-03-16 04:36:13 20.6 26 19.8
003911E7 2019-03-16 04:04:09 20.6 26 20.1
003911E7 2019-03-16 03:32:04 20.6 26 20
003911E7 2019-03-16 02:59:59 20.6 26 20.3
003911E7 2019-03-16 02:27:53 20.6 26 20.3
003911E7 2019-03-16 01:55:48 20.6 26 21.6
003911E7 2019-03-16 01:23:44 20.6 26 21.8
003911E7 2019-03-16 00:51:40 20.6 26 21.9
003911E7 2019-03-16 00:19:36 20.6 26 22
003911E7 2019-03-15 23:47:31 20.7 26 22.1
003911E7 2019-03-15 23:15:25 20.7 26 22
003911E7 2019-03-15 22:43:21 20.7 26 22
003911E7 2019-03-15 22:11:18 20.7 26 22.2
003911E7 2019-03-15 21:39:14 20.7 26 22.3
003911E7 2019-03-15 21:07:10 20.7 26 22.3
003911E7 2019-03-15 20:35:06 20.8 26 22.3
003911E7 2019-03-15 20:03:01 20.7 26 22.4
003911E7 2019-03-15 19:30:58 20.7 26 22.5
003911E7 2019-03-15 18:58:54 20.7 26 22.5
003911E7 2019-03-15 18:26:50 20.7 26 23.3
003911E7 2019-03-15 17:54:46 20.8 26 23.3
003911E7 2019-03-15 17:22:43 20.8 26 23.3
003911E7 2019-03-15 16:50:05 20.7 26 23.3
003911E7 2019-03-15 16:18:01 20.8 26 23.4
003911E7 2019-03-15 15:45:56 20.7 26 23.5
003911E7 2019-03-15 15:13:52 20.8 26 23.4
003911E7 2019-03-15 14:41:47 20.7 26 23.4
003911E7 2019-03-15 14:09:42 20.7 26 23.3
003911E7 2019-03-15 13:37:38 20.7 26 23.3
003911E7 2019-03-15 13:05:33 20.7 26 22.4
003911E7 2019-03-15 12:33:29 20.7 26 22.3
003911E7 2019-03-15 12:01:25 20.7 26 22.1
003911E7 2019-03-15 11:29:22 20.7 25 22
003911E7 2019-03-15 10:57:17 20.7 25 21.8
003911E7 2019-03-15 10:25:13 20.7 25 21.9
003911E7 2019-03-15 09:53:10 20.6 25 21.8
003911E7 2019-03-15 09:21:05 20.6 25 21.7
003911E7 2019-03-15 08:49:00 20.6 24 21.5
003911E7 2019-03-15 08:16:55 20.5 24 21.5
003911E7 2019-03-15 07:44:50 20.6 24 21.4
003911E7 2019-03-15 07:12:48 20.6 24 21.3
003911E7 2019-03-15 06:40:45 20.6 24 21.1
003911E7 2019-03-15 06:08:41 20.6 24 21.1
003911E7 2019-03-15 05:36:38 20.6 24 19.9
003911E7 2019-03-15 05:04:35 20.6 24 19.9
003911E7 2019-03-15 04:32:33 20.6 24 19.6
003911E7 2019-03-15 04:00:30 20.6 24 19.7
003911E7 2019-03-15 03:28:28 20.6 24 19.5
003911E7 2019-03-15 02:56:26 20.6 24 19.2
003911E7 2019-03-15 02:24:22 20.6 24 19
003911E7 2019-03-15 01:52:19 20.6 24 19
003911E7 2019-03-15 01:20:17 20.6 23 18.8
003911E7 2019-03-15 00:48:13 20.6 23 18.7
003911E7 2019-03-15 00:16:10 20.7 23 18.6
003911E7 2019-03-14 23:44:08 20.7 23 18.7
003911E7 2019-03-14 23:12:03 20.7 23 19.1
003911E7 2019-03-14 22:39:58 20.7 23 19.2
003911E7 2019-03-14 22:07:54 20.8 23 19.6
003911E7 2019-03-14 21:35:49 20.8 23 19.7
003911E7 2019-03-14 21:03:45 20.8 23 19.9
003911E7 2019-03-14 20:31:40 20.8 23 20.2
003911E7 2019-03-14 19:59:36 20.8 23 20.3
003911E7 2019-03-14 19:27:32 20.8 23 20.7
003911E7 2019-03-14 18:55:27 20.8 23 21
003911E7 2019-03-14 18:23:24 20.9 23 21.2
003911E7 2019-03-14 17:51:19 20.9 23 21.3
003911E7 2019-03-14 17:19:12 20.9 23 21.6
003911E7 2019-03-14 16:47:04 20.9 23 21.9
003911E7 2019-03-14 16:14:57 20.9 23 21.8
003911E7 2019-03-14 15:42:49 20.9 23 21.9
003911E7 2019-03-14 15:10:41 20.9 23 22.1
003911E7 2019-03-14 14:38:37 20.9 23 22.2
003911E7 2019-03-14 14:05:59 20.9 23 22.6
003911E7 2019-03-14 13:33:54 20.9 23 22.6
003911E7 2019-03-14 13:01:50 20.8 23 22.6
003911E7 2019-03-14 12:29:47 20.8 23 22.8
003911E7 2019-03-14 11:57:43 20.8 22 22.9
003911E7 2019-03-14 11:25:40 20.7 22 22.9
003911E7 2019-03-14 10:53:37 20.7 22 23
003911E7 2019-03-14 10:21:32 20.7 22 22.9
003911E7 2019-03-14 09:49:28 20.7 21 22.9
003911E7 2019-03-14 09:17:24 20.6 21 22.9
003911E7 2019-03-14 08:45:18 20.6 20 22.9
003911E7 2019-03-14 07:41:08 20.6 19 23.5
003911E7 2019-03-14 05:00:51 20.6 18 22.9
003911E7 2019-03-14 04:28:47 20.6 18 22.7
003911E7 2019-03-14 03:56:43 20.6 18 23.3
003911E7 2019-03-14 03:24:41 20.6 18 23.3
003911E7 2019-03-14 02:52:38 20.6 18 23.9
003911E7 2019-03-14 02:20:35 20.6 17 23.8
003911E7 2019-03-14 01:48:29 20.6 17 23.7
003911E7 2019-03-14 01:16:25 20.6 17 23.7
003911E7 2019-03-14 00:44:21 20.6 17 23.5
003911E7 2019-03-14 00:12:17 20.6 17 23.5
003911E7 2019-03-13 23:40:15 20.6 17 23.5
003911E7 2019-03-13 23:08:10 20.6 17 23.4
003911E7 2019-03-13 22:36:07 20.6 17 23.4
003911E7 2019-03-13 22:04:03 20.6 16 23.3
003911E7 2019-03-13 21:32:01 20.7 16 23.3
003911E7 2019-03-13 20:59:57 20.7 16 23.2
003911E7 2019-03-13 20:27:54 20.7 16 23.2
003911E7 2019-03-13 19:55:52 20.7 16 23.3
003911E7 2019-03-13 19:23:49 20.7 16 23.4
003911E7 2019-03-13 18:51:44 20.8 16 22.8
003911E7 2019-03-13 18:19:40 20.8 16 22.8
003911E7 2019-03-13 17:47:36 20.9 16 22.9
003911E7 2019-03-13 17:15:33 20.9 16 23
003911E7 2019-03-13 16:43:29 20.9 16 23.2
003911E7 2019-03-13 16:11:24 20.9 16 23.4
003911E7 2019-03-13 15:39:20 20.8 16 23.5
003911E7 2019-03-13 15:07:16 20.8 16 23.5
003911E7 2019-03-13 14:35:12 20.8 16 22.8
003911E7 2019-03-13 14:03:08 20.8 16 22.8
003911E7 2019-03-13 13:31:03 20.8 16 22.1
003911E7 2019-03-13 12:58:59 20.7 16 22.1
003911E7 2019-03-13 12:26:54 20.7 16 22
003911E7 2019-03-13 11:54:51 20.7 16 21.9
003911E7 2019-03-13 11:22:15 20.7 16 22.1
003911E7 2019-03-13 10:50:11 20.6 16 22.3
003911E7 2019-03-13 10:18:09 20.6 16 22.3
003911E7 2019-03-13 09:46:05 20.4 16 22.2
003911E7 2019-03-13 09:14:00 20.3 15 22.4
003911E7 2019-03-13 08:41:55 20.3 15 22.4
003911E7 2019-03-13 08:09:49 20.3 15 23.3
003911E7 2019-03-13 07:37:42 20.3 15 23.5
003911E7 2019-03-13 07:05:38 20.4 15 23.4
003911E7 2019-03-13 06:33:30 20.3 15 23.5
003911E7 2019-03-13 06:01:25 20.4 15 23.3
003911E7 2019-03-13 05:29:20 20.4 15 23.2
003911E7 2019-03-13 04:57:14 20.4 15 23.1
003911E7 2019-03-13 04:25:10 20.4 16 23
003911E7 2019-03-13 03:53:02 20.4 16 22.8
003911E7 2019-03-13 03:20:56 20.4 16 22.6
003911E7 2019-03-13 02:48:48 20.4 16 22.5
003911E7 2019-03-13 02:16:41 20.4 16 23.2
003911E7 2019-03-13 01:44:34 20.5 16 23.2
003911E7 2019-03-13 01:12:25 20.4 16 23
003911E7 2019-03-13 00:40:17 20.5 16 22.9
003911E7 2019-03-13 00:08:11 20.5 16 22.9
003911E7 2019-03-12 23:36:05 20.5 16 23.7
003911E7 2019-03-12 23:03:59 20.5 16 23.7
003911E7 2019-03-12 22:31:53 20.5 16 23.8
003911E7 2019-03-12 21:59:48 20.5 16 24.4
003911E7 2019-03-12 21:27:42 20.6 16 24.9
003911E7 2019-03-12 20:55:38 20.6 16 25.3
003911E7 2019-03-12 20:23:33 20.6 16 25.8
003911E7 2019-03-12 19:51:28 20.6 16 26.1
003911E7 2019-03-12 19:19:24 20.6 16 26.5
003911E7 2019-03-12 18:47:20 20.7 16 26.5
003911E7 2019-03-12 18:15:15 20.7 16 26.7
003911E7 2019-03-12 17:43:09 20.7 16 27
003911E7 2019-03-12 17:11:04 20.7 16 27.2
003911E7 2019-03-12 16:38:59 20.7 16 27.5
003911E7 2019-03-12 16:06:54 20.7 16 27.8
003911E7 2019-03-12 15:34:49 20.7 16 28.1
003911E7 2019-03-12 15:02:43 20.6 16 28.6
003911E7 2019-03-12 14:30:38 20.6 16 28.7
003911E7 2019-03-12 13:58:31 20.6 16 29
003911E7 2019-03-12 13:26:26 20.6 16 29
003911E7 2019-03-12 12:54:20 20.6 16 29.2
003911E7 2019-03-12 12:22:14 20.6 16 29.4
003911E7 2019-03-12 11:50:06 20.5 16 29.5
003911E7 2019-03-12 11:17:59 20.5 16 29.7
003911E7 2019-03-12 10:45:53 20.4 15 29.7
003911E7 2019-03-12 10:13:47 20.4 15 29.9
003911E7 2019-03-12 09:41:39 20.3 15 30
003911E7 2019-03-12 09:09:32 20.3 15 30
003911E7 2019-03-12 08:36:53 20.3 15 30
003911E7 2019-03-12 08:04:48 20.3 15 30
003911E7 2019-03-12 07:32:42 20.3 16 30
003911E7 2019-03-12 07:00:36 20.3 16 30
003911E7 2019-03-12 06:28:30 20.4 16 30
003911E7 2019-03-12 05:56:27 20.3 16 30
003911E7 2019-03-12 05:24:24 20.3 16 30
003911E7 2019-03-12 04:52:18 20.4 16 29.9
003911E7 2019-03-12 04:20:14 20.4 16 29.7
003911E7 2019-03-12 03:48:09 20.4 16 29.5
003911E7 2019-03-12 03:16:03 20.4 16 29.3
003911E7 2019-03-12 02:43:56 20.4 16 29.1
003911E7 2019-03-12 02:11:49 20.4 16 28.9
003911E7 2019-03-12 01:39:42 20.4 16 28.8
003911E7 2019-03-12 01:07:35 20.4 16 28.6
003911E7 2019-03-12 00:35:27 20.5 16 28.4
003911E7 2019-03-12 00:03:19 20.5 16 28.1
003911E7 2019-03-11 23:31:12 20.5 16 27.9
003911E7 2019-03-11 22:59:04 20.5 16 27.6
003911E7 2019-03-11 22:26:58 20.6 16 27.4
003911E7 2019-03-11 21:54:51 20.6 16 27
003911E7 2019-03-11 21:22:44 20.6 16 27
003911E7 2019-03-11 20:50:38 20.6 16 26.7
003911E7 2019-03-11 20:18:34 20.6 16 26.4
003911E7 2019-03-11 19:46:28 20.7 16 26
003911E7 2019-03-11 19:14:26 20.7 16 25.6
003911E7 2019-03-11 18:42:21 20.7 16 25.1
003911E7 2019-03-11 18:10:18 20.8 16 24.6
003911E7 2019-03-11 17:38:12 20.8 16 24.1
003911E7 2019-03-11 17:06:07 20.7 16 23.5
003911E7 2019-03-11 16:34:02 20.7 16 22.9
003911E7 2019-03-11 16:01:56 20.7 16 22
003911E7 2019-03-11 15:29:50 20.6 16 21.9
003911E7 2019-03-11 14:57:44 20.6 16 22
003911E7 2019-03-11 14:25:37 20.6 16 22
003911E7 2019-03-11 13:53:30 20.5 16 22
003911E7 2019-03-11 13:21:22 20.5 16 23
003911E7 2019-03-11 12:49:14 20.4 16 23
003911E7 2019-03-11 12:17:08 20.5 16 22.9
003911E7 2019-03-11 11:45:02 20.4 16 22.8
003911E7 2019-03-11 11:12:56 20.4 17 22.7
003911E7 2019-03-11 10:40:49 20.4 17 22.7
003911E7 2019-03-11 10:08:44 20.4 17 22.7
003911E7 2019-03-11 09:36:38 20.3 17 22.7
003911E7 2019-03-11 09:04:37 20.3 17 22.8
003911E7 2019-03-11 08:32:27 20.3 17 22.8
003911E7 2019-03-11 08:00:21 20.3 18 22
003911E7 2019-03-11 07:28:15 20.3 18 22
003911E7 2019-03-11 06:56:10 20.3 18 22
003911E7 2019-03-11 06:24:05 20.3 18 22
003911E7 2019-03-11 05:51:29 20.3 18 22.2
003911E7 2019-03-11 05:19:23 20.4 18 22.2
003911E7 2019-03-11 04:47:17 20.4 18 22.1
003911E7 2019-03-11 04:15:11 20.4 18 22.1
003911E7 2019-03-11 03:43:06 20.4 19 22
003911E7 2019-03-11 03:11:00 20.4 19 22.2
003911E7 2019-03-11 02:38:54 20.4 19 22.4
003911E7 2019-03-11 02:06:50 20.4 19 22.3
003911E7 2019-03-11 01:34:47 20.4 19 22.4
003911E7 2019-03-11 01:02:42 20.4 19 22.4
003911E7 2019-03-11 00:30:39 20.4 19 21.3
003911E7 2019-03-10 23:58:34 20.4 19 21.3
003911E7 2019-03-10 23:26:29 20.5 19 21.2
003911E7 2019-03-10 22:54:22 20.5 19 21.2
003911E7 2019-03-10 22:22:17 20.5 19 21.2
003911E7 2019-03-10 21:50:14 20.5 20 21.3
003911E7 2019-03-10 21:18:08 20.5 20 21.4
003911E7 2019-03-10 20:46:04 20.6 20 21.3
003911E7 2019-03-10 20:13:59 20.6 20 21.2
003911E7 2019-03-10 19:41:55 20.6 20 21.3
003911E7 2019-03-10 19:09:51 20.6 20 21.3
003911E7 2019-03-10 18:37:47 20.6 20 21.2
003911E7 2019-03-10 18:05:42 20.7 20 21.3
003911E7 2019-03-10 17:33:38 20.6 21 21.4
003911E7 2019-03-10 17:01:31 20.6 21 21.5
003911E7 2019-03-10 16:29:25 20.6 21 21.3
003911E7 2019-03-10 15:57:20 20.6 21 21.4
003911E7 2019-03-10 15:25:14 20.6 21 21.6
003911E7 2019-03-10 14:53:07 20.6 22 21.5
003911E7 2019-03-10 14:21:00 20.6 23 21.7
003911E7 2019-03-10 13:48:54 20.6 23 21.4
003911E7 2019-03-10 13:16:48 20.5 23 21.2
003911E7 2019-03-10 12:44:43 20.5 23 21.3
003911E7 2019-03-10 12:12:37 20.5 24 21.4
003911E7 2019-03-10 11:40:31 20.5 24 21.4
003911E7 2019-03-10 11:08:25 20.5 24 21.6
003911E7 2019-03-10 10:36:20 20.5 24 21.5
003911E7 2019-03-10 10:04:14 20.5 24 21.6
003911E7 2019-03-10 09:32:08 20.5 24 21.5
003911E7 2019-03-10 09:00:02 20.5 24 21.8
003911E7 2019-03-10 08:27:54 20.5 24 21.8
003911E7 2019-03-10 07:55:49 20.5 24 21.8
003911E7 2019-03-10 07:23:43 20.5 24 21.8
003911E7 2019-03-10 06:51:37 20.5 24 21.7
003911E7 2019-03-10 06:19:32 20.5 24 21.7
003911E7 2019-03-10 05:47:24 20.5 24 21.8
003911E7 2019-03-10 05:15:20 20.5 24 21.9
003911E7 2019-03-10 04:43:15 20.5 24 21.8
003911E7 2019-03-10 04:11:09 20.5 24 21.9
003911E7 2019-03-10 03:39:05 20.5 24 21.7
003911E7 2019-03-10 03:06:27 20.5 24 21.8
003911E7 2019-03-10 02:34:23 20.5 24 21.8
003911E7 2019-03-10 02:02:19 20.6 24 21.7
003911E7 2019-03-10 01:30:15 20.5 24 21.6
003911E7 2019-03-10 00:58:10 20.6 23 21.7
003911E7 2019-03-10 00:26:05 20.5 23 22.6
003911E7 2019-03-09 23:54:00 20.6 23 22.7
003911E7 2019-03-09 23:21:56 20.6 23 22.7
003911E7 2019-03-09 22:49:53 20.6 23 22.7
003911E7 2019-03-09 22:17:49 20.6 23 22.6
003911E7 2019-03-09 21:45:45 20.6 23 22.7
003911E7 2019-03-09 21:13:39 20.6 23 22.7
003911E7 2019-03-09 20:41:36 20.6 23 22.7
003911E7 2019-03-09 20:09:31 20.6 23 22.5
003911E7 2019-03-09 19:37:26 20.6 23 22.6
003911E7 2019-03-09 19:05:19 20.7 23 22.6
003911E7 2019-03-09 18:33:14 20.7 23 22.6
003911E7 2019-03-09 18:01:10 20.7 23 22.6
003911E7 2019-03-09 17:29:02 20.7 23 22.5
003911E7 2019-03-09 16:56:56 20.7 23 22.4
003911E7 2019-03-09 16:24:51 20.8 23 22.4
003911E7 2019-03-09 15:52:45 20.7 23 22.4
003911E7 2019-03-09 15:20:38 20.7 23 22.3
003911E7 2019-03-09 14:48:32 20.7 23 22.3
003911E7 2019-03-09 14:16:26 20.6 23 22.2
003911E7 2019-03-09 13:44:20 20.6 23 22.3
003911E7 2019-03-09 13:12:13 20.6 23 22.3
003911E7 2019-03-09 12:40:07 20.6 24 22.5
003911E7 2019-03-09 12:07:59 20.6 24 22.4
003911E7 2019-03-09 11:35:52 20.6 24 22.4
003911E7 2019-03-09 11:03:45 20.6 24 21.5
003911E7 2019-03-09 10:31:38 20.5 24 21.4
003911E7 2019-03-09 09:59:31 20.5 24 21.4
003911E7 2019-03-09 09:27:24 20.5 24 21.6
003911E7 2019-03-09 08:55:18 20.5 24 21.6
003911E7 2019-03-09 08:23:12 20.6 25 22.5
003911E7 2019-03-09 07:51:06 20.6 25 22.6
003911E7 2019-03-09 07:19:00 20.6 25 22.7
003911E7 2019-03-09 06:46:56 20.6 25 22.8
003911E7 2019-03-09 06:14:53 20.6 25 22.6
003911E7 2019-03-09 05:42:47 20.6 26 22.6
003911E7 2019-03-09 05:10:42 20.6 26 22.6
003911E7 2019-03-09 04:38:37 20.7 26 22.7
003911E7 2019-03-09 04:06:31 20.7 26 23.5
003911E7 2019-03-09 03:34:26 20.7 26 23.5
003911E7 2019-03-09 03:02:20 20.7 26 23.6
003911E7 2019-03-09 02:30:15 20.7 26 23.5
003911E7 2019-03-09 01:58:11 20.7 26 23.7
003911E7 2019-03-09 01:26:07 20.8 26 23.8
003911E7 2019-03-09 00:54:04 20.8 26 24.3
003911E7 2019-03-09 00:21:26 20.8 26 24.4
003911E7 2019-03-08 23:49:21 20.8 26 24.3
003911E7 2019-03-08 23:17:15 20.8 26 24.4
003911E7 2019-03-08 22:45:11 20.8 26 24.4
003911E7 2019-03-08 22:13:02 20.9 26 24.3
003911E7 2019-03-08 21:40:54 20.9 26 24.4
003911E7 2019-03-08 21:08:46 20.9 26 24.3
003911E7 2019-03-08 20:36:40 20.9 26 24.3
003911E7 2019-03-08 20:04:35 21 26 24.3
003911E7 2019-03-08 19:32:28 21 26 23.8
003911E7 2019-03-08 19:00:21 21 27 23.8
003911E7 2019-03-08 18:28:15 21 26 23.8
003911E7 2019-03-08 17:56:08 21 26 23.8
003911E7 2019-03-08 17:24:03 21.1 26 23.9
003911E7 2019-03-08 16:51:57 21.1 27 24.1
003911E7 2019-03-08 16:19:50 21 27 24.1
003911E7 2019-03-08 15:47:45 21 27 24.1
003911E7 2019-03-08 15:15:39 21 26 23.6
003911E7 2019-03-08 14:43:33 20.9 26 23.6
003911E7 2019-03-08 14:11:29 20.9 26 23.7
003911E7 2019-03-08 13:39:24 20.9 26 23.7
003911E7 2019-03-08 13:07:18 20.9 26 23.6
003911E7 2019-03-08 12:35:13 20.8 26 23.5
003911E7 2019-03-08 12:03:06 20.8 25 22.9
003911E7 2019-03-08 11:31:00 20.8 25 23
003911E7 2019-03-08 10:58:53 20.7 25 23
003911E7 2019-03-08 10:26:48 20.7 25 22.9
003911E7 2019-03-08 09:54:42 20.7 25 22.8
003911E7 2019-03-08 09:22:37 20.7 24 22.9
003911E7 2019-03-08 08:50:31 20.7 24 22.9
003911E7 2019-03-08 08:18:25 20.7 24 22.8
003911E7 2019-03-08 07:46:19 20.7 23 22.9
003911E7 2019-03-08 07:14:13 20.7 23 22.8
003911E7 2019-03-08 06:42:08 20.7 23 22.8
003911E7 2019-03-08 06:10:02 20.7 23 22.9
003911E7 2019-03-08 05:37:56 20.7 23 22.7
003911E7 2019-03-08 05:05:50 20.7 23 22.8
003911E7 2019-03-08 04:33:47 20.7 23 22.8
003911E7 2019-03-08 04:01:40 20.7 22 22.7
003911E7 2019-03-08 03:29:35 20.7 22 23.3
003911E7 2019-03-08 02:57:30 20.7 22 23.2
003911E7 2019-03-08 02:25:26 20.7 22 23.1
003911E7 2019-03-08 01:53:22 20.7 22 23.2
003911E7 2019-03-08 01:21:18 20.7 22 23.1
003911E7 2019-03-08 00:49:14 20.7 22 22.9
003911E7 2019-03-08 00:17:10 20.7 22 23.6
003911E7 2019-03-07 23:45:05 20.7 22 23.6
003911E7 2019-03-07 23:12:59 20.8 22 23.5
003911E7 2019-03-07 22:40:55 20.8 22 23.4
003911E7 2019-03-07 22:08:50 20.8 22 23.2
003911E7 2019-03-07 21:36:12 20.8 22 23
003911E7 2019-03-07 21:04:08 20.9 22 22.9
003911E7 2019-03-07 20:32:02 20.9 22 22.8
003911E7 2019-03-07 19:59:57 20.9 22 23.5
003911E7 2019-03-07 19:27:52 21 21 23.5
003911E7 2019-03-07 18:55:47 21 21 23.4
003911E7 2019-03-07 18:23:43 21.1 21 23.2
003911E7 2019-03-07 17:51:38 21.1 21 23.1
003911E7 2019-03-07 17:19:34 21.1 21 23
003911E7 2019-03-07 16:47:29 21.2 21 23
003911E7 2019-03-07 16:15:23 21.1 21 22.8
003911E7 2019-03-07 15:43:21 21.1 21 22.6
003911E7 2019-03-07 15:11:16 21.1 20 22.6
003911E7 2019-03-07 14:39:12 21 21 21.5
003911E7 2019-03-07 14:07:08 21 20 21.5
003911E7 2019-03-07 13:35:04 20.9 19 21.5
003911E7 2019-03-07 13:02:59 20.9 19 21.1
003911E7 2019-03-07 12:30:54 20.9 18 21
003911E7 2019-03-07 11:58:50 20.9 18 21.1
003911E7 2019-03-07 11:26:46 20.8 18 19.7
003911E7 2019-03-07 10:54:41 20.8 18 19.7
003911E7 2019-03-07 10:22:36 20.7 17 19.8
003911E7 2019-03-07 09:50:30 20.7 16 19.7
003911E7 2019-03-07 09:18:25 20.7 16 19.8
003911E7 2019-03-07 08:46:21 20.7 16 19.9
003911E7 2019-03-07 08:14:17 20.7 15 19.9
003911E7 2019-03-07 07:42:13 20.7 15 19.9
003911E7 2019-03-07 07:10:08 20.7 15 19.8
003911E7 2019-03-07 06:38:04 20.7 15 17.6
003911E7 2019-03-07 06:06:00 20.7 14 17.7
003911E7 2019-03-07 05:33:55 20.7 14 17.6
003911E7 2019-03-07 05:01:51 20.7 14 17.6
003911E7 2019-03-07 04:29:47 20.7 14 17.6
003911E7 2019-03-07 03:57:43 20.7 14 17.8
003911E7 2019-03-07 03:25:39 20.7 13 17.7
003911E7 2019-03-07 02:53:35 20.7 13 17.7
003911E7 2019-03-07 02:21:31 20.7 13 17.8
003911E7 2019-03-07 01:49:27 20.7 13 17.8
003911E7 2019-03-07 01:17:22 20.7 13 17.9
003911E7 2019-03-07 00:45:18 20.7 13 17.7
003911E7 2019-03-07 00:13:13 20.7 13 17.7
003911E7 2019-03-06 23:41:09 20.7 12 17.6
003911E7 2019-03-06 23:09:03 20.7 12 17.7
003911E7 2019-03-06 22:36:59 20.7 12 17.5
003911E7 2019-03-06 22:04:54 20.7 12 17.4
003911E7 2019-03-06 21:32:49 20.7 12 17.2
003911E7 2019-03-06 21:00:45 20.7 12 17.2
003911E7 2019-03-06 20:28:39 20.7 12 17.1
003911E7 2019-03-06 19:56:35 20.8 12 19.4
003911E7 2019-03-06 19:24:31 20.8 12 19.4
003911E7 2019-03-06 18:51:53 20.8 11 20.9
003911E7 2019-03-06 18:19:48 20.9 11 21
003911E7 2019-03-06 17:47:42 20.9 11 20.9
003911E7 2019-03-06 17:15:37 20.9 11 21.1
003911E7 2019-03-06 16:43:34 20.9 11 21.1
003911E7 2019-03-06 16:11:31 20.9 11 21.1
003911E7 2019-03-06 15:39:25 20.9 11 21.1
003911E7 2019-03-06 15:07:22 20.9 11 20.9
003911E7 2019-03-06 14:03:14 20.7 11 21
003911E7 2019-03-06 13:31:08 20.6 11 22.1
003911E7 2019-03-06 12:59:05 20.7 11 22.1
003911E7 2019-03-06 12:26:59 20.6 11 22.1
003911E7 2019-03-06 11:54:56 20.6 11 22.1
003911E7 2019-03-06 11:22:53 20.6 11 22.2
003911E7 2019-03-06 10:50:49 20.6 12 22.2
003911E7 2019-03-06 10:18:43 20.5 12 22.2
003911E7 2019-03-06 09:46:36 20.4 11 22.2
003911E7 2019-03-06 09:14:32 20.4 11 22.3
003911E7 2019-03-06 08:42:24 20.4 11 22.2
003911E7 2019-03-06 08:10:18 20.4 12 22.2
003911E7 2019-03-06 07:38:12 20.4 12 22.2
003911E7 2019-03-06 07:06:06 20.4 12 22.2
003911E7 2019-03-06 06:33:59 20.5 12 21.3
003911E7 2019-03-06 06:01:51 20.5 12 21.5
003911E7 2019-03-06 05:29:42 20.5 12 20.2
003911E7 2019-03-06 04:57:35 20.5 12 20.2
003911E7 2019-03-06 04:25:26 20.5 12 20.3
003911E7 2019-03-06 03:53:18 20.5 12 20.4
003911E7 2019-03-06 03:21:11 20.5 13 20.5
003911E7 2019-03-06 02:49:05 20.5 13 20.6
003911E7 2019-03-06 02:16:57 20.6 13 20.8
003911E7 2019-03-06 01:44:51 20.6 13 20.9
003911E7 2019-03-06 01:12:46 20.6 13 20.9
003911E7 2019-03-06 00:40:41 20.6 13 19.3
003911E7 2019-03-06 00:08:35 20.7 13 19.3
003911E7 2019-03-05 23:36:29 20.7 13 19.3
003911E7 2019-03-05 23:04:23 20.7 13 19.3
003911E7 2019-03-05 22:32:17 20.8 13 19.2
003911E7 2019-03-05 22:00:10 20.8 13 19.4
003911E7 2019-03-05 21:28:03 20.8 13 19.3
003911E7 2019-03-05 20:55:57 20.8 13 19.4
003911E7 2019-03-05 20:23:50 20.8 13 19.4
003911E7 2019-03-05 19:51:46 20.8 13 19.4
003911E7 2019-03-05 19:19:37 20.9 13 21
003911E7 2019-03-05 18:47:29 20.9 13 21
003911E7 2019-03-05 18:15:24 20.9 14 21
003911E7 2019-03-05 17:43:16 21 14 20.8
003911E7 2019-03-05 17:11:10 21 14 20.9
003911E7 2019-03-05 16:39:04 21 15 21.1
003911E7 2019-03-05 16:06:29 21 15 21.2
003911E7 2019-03-05 15:34:18 20.9 16 21.2
003911E7 2019-03-05 15:02:14 20.7 16 20.9
003911E7 2019-03-05 14:30:10 20.6 16 20.8
003911E7 2019-03-05 13:58:05 20.6 16 20.7
003911E7 2019-03-05 13:26:00 20.6 17 20.6
003911E7 2019-03-05 12:53:54 20.6 17 20.6
003911E7 2019-03-05 12:21:49 20.6 17 20.9
003911E7 2019-03-05 11:49:43 20.5 17 21.1
003911E7 2019-03-05 11:17:37 20.5 17 21.1
003911E7 2019-03-05 10:45:31 20.5 17 21.1
003911E7 2019-03-05 10:13:24 20.5 18 21.1
003911E7 2019-03-05 09:41:19 20.5 18 21
003911E7 2019-03-05 09:09:13 20.4 18 21
003911E7 2019-03-05 08:37:08 20.4 18 21
003911E7 2019-03-05 08:05:02 20.4 18 21
003911E7 2019-03-05 07:32:58 20.5 18 20.9
003911E7 2019-03-05 07:00:53 20.5 18 19.6
003911E7 2019-03-05 06:28:49 20.5 18 19.5
003911E7 2019-03-05 05:56:44 20.5 18 19.5
003911E7 2019-03-05 05:24:41 20.5 19 19.6
003911E7 2019-03-05 04:52:37 20.5 18 19.1
003911E7 2019-03-05 04:20:33 20.5 18 18.6
003911E7 2019-03-05 03:48:29 20.5 18 18.3
003911E7 2019-03-05 03:16:25 20.5 18 18.4
003911E7 2019-03-05 02:44:22 20.5 18 18.5
003911E7 2019-03-05 02:12:15 20.5 18 18.5
003911E7 2019-03-05 01:40:10 20.5 18 18.6
003911E7 2019-03-05 01:08:07 20.5 18 18.7
003911E7 2019-03-05 00:36:00 20.5 18 18.9
003911E7 2019-03-05 00:03:56 20.5 18 18.7
003911E7 2019-03-04 23:31:53 20.5 18 18.5
003911E7 2019-03-04 22:59:49 20.5 18 18.2
003911E7 2019-03-04 22:27:47 20.5 18 17.8
003911E7 2019-03-04 21:55:43 20.5 18 18.3
003911E7 2019-03-04 21:23:39 20.5 18 18.4
003911E7 2019-03-04 20:51:40 20.5 18 18.4
003911E7 2019-03-04 20:19:30 20.5 18 18.4
003911E7 2019-03-04 19:47:25 20.5 18 18.5
003911E7 2019-03-04 19:15:21 20.5 18 19.1
003911E7 2019-03-04 18:43:16 20.5 18 19.5
003911E7 2019-03-04 18:11:12 20.5 18 19.5
003911E7 2019-03-04 17:39:10 20.6 17 19.2
003911E7 2019-03-04 17:07:05 20.5 17 19.3
003911E7 2019-03-04 16:35:01 20.5 17 19.8
003911E7 2019-03-04 15:30:51 20.5 17 19.8
003911E7 2019-03-04 14:58:47 20.4 17 19.8
003911E7 2019-03-04 14:26:41 20.4 17 19.9
003911E7 2019-03-04 13:54:37 20.4 17 19.8
003911E7 2019-03-04 13:21:58 20.3 17 19.6
003911E7 2019-03-04 12:49:52 20.3 17 19.6
003911E7 2019-03-04 12:17:47 20.3 17 19.8
003911E7 2019-03-04 11:45:41 20.3 17 19.6
003911E7 2019-03-04 11:13:36 20.2 17 19.6
003911E7 2019-03-04 10:41:30 20.2 17 21
003911E7 2019-03-04 10:09:26 20.1 17 21
003911E7 2019-03-04 09:37:20 20.1 17 20.9
003911E7 2019-03-04 09:05:14 20 17 21
003911E7 2019-03-04 08:33:09 20 17 22.1
003911E7 2019-03-04 08:01:04 20 17 21.9
003911E7 2019-03-04 07:29:00 20 17 21.9
003911E7 2019-03-04 06:56:55 20 17 22
003911E7 2019-03-04 06:24:52 20 17 22.2
003911E7 2019-03-04 05:52:47 20 17 22.1
003911E7 2019-03-04 05:20:43 20 17 22.8
003911E7 2019-03-04 04:48:39 20 17 22.8
003911E7 2019-03-04 04:16:35 20 17 22.8
003911E7 2019-03-04 03:44:30 20 17 23.6
003911E7 2019-03-04 03:12:25 20.1 17 23.6
003911E7 2019-03-04 02:40:19 20 17 23.5
003911E7 2019-03-04 02:08:13 20 17 23.5
003911E7 2019-03-04 01:36:08 20 17 23.7
003911E7 2019-03-04 01:04:03 20.1 17 23.7
003911E7 2019-03-04 00:31:58 20.1 17 23.7
003911E7 2019-03-03 23:59:52 20.1 17 23.8
003911E7 2019-03-03 23:27:46 20.1 17 23.8
003911E7 2019-03-03 22:55:41 20.1 17 23.7
003911E7 2019-03-03 22:23:36 20.1 17 23.7
003911E7 2019-03-03 21:51:31 20.1 17 23.8
003911E7 2019-03-03 21:19:25 20.1 17 23.2
003911E7 2019-03-03 20:47:20 20.1 17 23.3
003911E7 2019-03-03 20:15:15 20.1 17 23.3
003911E7 2019-03-03 19:43:10 20.1 18 23.3
003911E7 2019-03-03 19:11:05 20.1 18 22.4
003911E7 2019-03-03 18:39:01 20.1 18 22.5
003911E7 2019-03-03 18:06:56 20.2 18 22.5
003911E7 2019-03-03 17:34:50 20.2 18 22.6
003911E7 2019-03-03 17:02:44 20.2 18 22.4
003911E7 2019-03-03 16:30:38 20.2 18 22.3
003911E7 2019-03-03 15:58:31 20.2 18 21.2
003911E7 2019-03-03 15:26:24 20.2 18 21
003911E7 2019-03-03 14:54:18 20.2 18 21
003911E7 2019-03-03 14:22:11 20.2 18 19.4
003911E7 2019-03-03 13:50:03 20.2 18 19.3
003911E7 2019-03-03 13:17:56 20.2 18 19.2
003911E7 2019-03-03 12:45:49 20.1 18 19
003911E7 2019-03-03 12:13:43 20.2 18 18.5
003911E7 2019-03-03 11:41:36 20.2 18 18.5
003911E7 2019-03-03 11:09:30 20.4 18 18.4
003911E7 2019-03-03 11:08:15 20.1 18 18.3
003911E7 2019-03-03 10:36:10 20.2 18 18.2
003911E7 2019-03-03 10:04:04 20.2 18 18.3
003911E7 2019-03-03 09:31:59 20.2 18 18.3
003911E7 2019-03-03 08:59:56 20.2 18 18.1
003911E7 2019-03-03 08:27:46 20.2 18 17.3
003911E7 2019-03-03 07:55:40 20.2 18 17.1
003911E7 2019-03-03 07:23:33 20.2 18 16.9
003911E7 2019-03-03 06:51:27 20.2 18 17.1
003911E7 2019-03-03 06:19:21 20.2 18 17.1
003911E7 2019-03-03 05:47:14 20.2 18 17.1
003911E7 2019-03-03 05:15:09 20.3 18 16.9
003911E7 2019-03-03 04:43:04 20.3 18 16.4
003911E7 2019-03-03 04:10:58 20.3 18 16.9
003911E7 2019-03-03 03:38:53 20.3 18 16.9
003911E7 2019-03-03 03:06:48 20.3 18 16.9
003911E7 2019-03-03 02:34:43 20.3 18 16.9
003911E7 2019-03-03 02:02:38 20.3 18 16.6
003911E7 2019-03-03 01:30:34 20.3 18 16.4
003911E7 2019-03-03 00:58:30 20.3 18 16.7
003911E7 2019-03-03 00:26:28 20.3 17 17.2
003911E7 2019-03-02 23:54:24 20.3 17 17.4
003911E7 2019-03-02 23:22:23 20.3 17 17.5
003911E7 2019-03-02 22:50:20 20.3 17 17.5
003911E7 2019-03-02 22:18:16 20.4 17 18.1
003911E7 2019-03-02 21:46:11 20.4 17 18.2
003911E7 2019-03-02 21:14:05 20.4 17 18.6
003911E7 2019-03-02 20:42:00 20.4 17 18.7
003911E7 2019-03-02 20:09:54 20.4 17 18.8
003911E7 2019-03-02 19:37:47 20.4 17 18.8
003911E7 2019-03-02 19:05:39 20.4 17 18.9
003911E7 2019-03-02 18:33:34 20.5 17 19.1
003911E7 2019-03-02 18:01:26 20.5 17 19.3
003911E7 2019-03-02 17:29:20 20.5 17 19.1
003911E7 2019-03-02 16:57:14 20.5 16 19.3
003911E7 2019-03-02 16:25:05 20.5 16 19.4
003911E7 2019-03-02 15:53:00 20.5 16 19.3
003911E7 2019-03-02 15:20:53 20.5 16 19.6
003911E7 2019-03-02 14:48:46 20.4 16 19.6
003911E7 2019-03-02 14:16:40 20.4 16 20.2
003911E7 2019-03-02 13:44:34 20.4 16 20.2
003911E7 2019-03-02 13:12:30 20.4 16 20.2
003911E7 2019-03-02 12:40:21 20.4 16 20.4
003911E7 2019-03-02 12:08:17 20.4 16 20.4
003911E7 2019-03-02 11:36:09 20.4 15 20.6
003911E7 2019-03-02 11:04:02 20.4 15 20.4
003911E7 2019-03-02 10:31:55 20.4 15 20.3
003911E7 2019-03-02 09:59:48 20.4 15 20.2
003911E7 2019-03-02 09:27:40 20.4 15 20.2
003911E7 2019-03-02 08:55:32 20.4 15 19.8
003911E7 2019-03-02 08:22:51 20.4 15 19.4
003911E7 2019-03-02 07:50:44 20.4 15 19.3
003911E7 2019-03-02 07:18:38 20.4 15 19.2
003911E7 2019-03-02 06:46:32 20.4 15 19.2
003911E7 2019-03-02 06:14:24 20.4 15 19.4
003911E7 2019-03-02 05:42:16 20.5 14 19.2
003911E7 2019-03-02 05:10:10 20.4 14 18.9
003911E7 2019-03-02 04:38:03 20.5 14 19.3
003911E7 2019-03-02 04:05:57 20.5 14 19.1
003911E7 2019-03-02 03:33:50 20.5 14 19.4
003911E7 2019-03-02 03:01:43 20.5 14 20
003911E7 2019-03-02 02:29:37 20.6 14 20.2
003911E7 2019-03-02 01:57:30 20.6 14 20.3
003911E7 2019-03-02 01:25:24 20.6 14 19.7
003911E7 2019-03-02 00:53:18 20.7 14 19.7
003911E7 2019-03-02 00:21:14 20.7 14 19.7
003911E7 2019-03-01 23:49:10 20.8 13 19.9
003911E7 2019-03-01 23:17:07 20.8 13 20.5
003911E7 2019-03-01 22:45:03 20.9 13 21.6
003911E7 2019-03-01 22:12:59 20.9 13 21.5
003911E7 2019-03-01 21:40:55 20.9 13 22
003911E7 2019-03-01 21:08:50 20.9 13 22.2
003911E7 2019-03-01 20:36:44 21 13 22.2
003911E7 2019-03-01 20:04:39 21 13 22.6
003911E7 2019-03-01 19:32:35 21 13 22.6
003911E7 2019-03-01 19:00:25 21 13 22.8
003911E7 2019-03-01 18:28:18 21.1 13 22.8
003911E7 2019-03-01 17:56:10 21.2 13 22.8
003911E7 2019-03-01 17:24:02 21.2 13 22.9
003911E7 2019-03-01 16:51:53 21.3 14 22.7
003911E7 2019-03-01 16:19:46 21.2 14 22.9
003911E7 2019-03-01 15:47:40 21.2 14 23
003911E7 2019-03-01 15:15:31 21.1 15 23
003911E7 2019-03-01 14:43:29 20.9 15 23.1
003911E7 2019-03-01 14:11:21 20.9 15 23
003911E7 2019-03-01 13:39:16 20.9 16 22.8
003911E7 2019-03-01 13:07:10 20.9 16 22.5
003911E7 2019-03-01 12:35:04 20.9 16 22.5
003911E7 2019-03-01 12:02:58 20.9 16 22.6
003911E7 2019-03-01 11:30:52 20.9 17 22.5
003911E7 2019-03-01 10:58:47 20.8 17 22.6
003911E7 2019-03-01 10:26:41 20.7 17 22.7
003911E7 2019-03-01 09:54:34 20.6 17 22.5
003911E7 2019-03-01 09:22:28 20.5 17 21.6
003911E7 2019-03-01 08:50:21 20.5 17 22.6
003911E7 2019-03-01 08:18:14 20.5 18 22.4
003911E7 2019-03-01 07:46:06 20.5 18 22.4
003911E7 2019-03-01 07:14:01 20.6 18 22.5
003911E7 2019-03-01 06:41:54 20.6 19 22.4
003911E7 2019-03-01 06:09:47 20.8 19 22.3
003911E7 2019-03-01 06:08:32 20.6 19 22.3
003911E7 2019-03-01 05:36:26 20.6 19 22.5
003911E7 2019-03-01 05:04:21 20.6 19 22.5
003911E7 2019-03-01 04:32:13 20.6 19 23.3
003911E7 2019-03-01 04:00:06 20.6 20 23.2
003911E7 2019-03-01 03:27:59 20.6 20 23.2
003911E7 2019-03-01 02:55:53 20.6 20 23.3
003911E7 2019-03-01 02:23:47 20.6 20 23.5
003911E7 2019-03-01 01:51:41 20.7 21 23.6
003911E7 2019-03-01 01:19:35 20.7 21 23.6
003911E7 2019-03-01 00:47:29 20.7 21 23.5
003911E7 2019-03-01 00:15:22 20.7 22 23.4
003911E7 2019-02-28 23:43:16 20.8 22 23.5
003911E7 2019-02-28 23:11:08 20.8 22 23.5
003911E7 2019-02-28 22:39:03 20.8 22 23.4
003911E7 2019-02-28 22:06:56 20.8 23 23.5
003911E7 2019-02-28 21:34:48 20.9 23 23.4
003911E7 2019-02-28 21:02:40 20.9 23 22.6
003911E7 2019-02-28 20:30:32 21 23 22.7
003911E7 2019-02-28 19:58:25 21 23 22.7
003911E7 2019-02-28 19:26:18 21 23 22.7
003911E7 2019-02-28 18:54:10 21.1 24 22.8
003911E7 2019-02-28 18:22:01 21.2 24 22.7
003911E7 2019-02-28 17:49:53 21.3 24 23
003911E7 2019-02-28 17:17:47 21.3 25 23.1
003911E7 2019-02-28 16:45:43 21.4 25 23.1
003911E7 2019-02-28 16:13:38 21.4 25 23.2
003911E7 2019-02-28 15:41:35 21.3 25 22.6
003911E7 2019-02-28 15:09:30 21.3 24 23
003911E7 2019-02-28 14:37:24 21.2 24 22.9
003911E7 2019-02-28 14:05:19 21.3 24 22.8
003911E7 2019-02-28 13:33:10 21.2 24 22.6
003911E7 2019-02-28 13:01:04 21.2 24 22.6
003911E7 2019-02-28 12:28:59 21.1 24 22.8
003911E7 2019-02-28 11:56:50 21.1 24 23
003911E7 2019-02-28 11:24:44 21 24 23.1
003911E7 2019-02-28 10:52:38 20.9 24 23
003911E7 2019-02-28 10:20:32 20.8 23 23.2
003911E7 2019-02-28 09:48:26 20.8 22 23.2
003911E7 2019-02-28 09:16:20 20.8 22 23.2
003911E7 2019-02-28 08:44:13 20.7 22 23.2
003911E7 2019-02-28 08:12:07 20.7 22 23.2
003911E7 2019-02-28 07:40:00 20.7 22 23.1
003911E7 2019-02-28 07:07:54 20.7 22 23.1
003911E7 2019-02-28 06:35:49 20.8 22 23.2
003911E7 2019-02-28 06:03:43 20.8 22 23.2
003911E7 2019-02-28 05:31:38 20.8 22 23.2
003911E7 2019-02-28 04:59:31 20.8 22 23.3
003911E7 2019-02-28 04:27:24 20.8 22 23.1
003911E7 2019-02-28 03:55:16 20.8 22 22.9
003911E7 2019-02-28 03:22:37 20.8 22 23
003911E7 2019-02-28 02:50:30 20.8 22 22.9
003911E7 2019-02-28 02:18:23 20.8 22 22.6
003911E7 2019-02-28 01:46:17 20.8 22 22.5
003911E7 2019-02-28 01:14:11 20.9 22 22.4
003911E7 2019-02-28 00:42:05 20.9 22 22.2
003911E7 2019-02-28 00:09:58 20.9 22 22
003911E7 2019-02-27 23:37:52 20.9 22 22
003911E7 2019-02-27 23:05:45 21 22 21.9
003911E7 2019-02-27 22:33:39 21 23 21.9
003911E7 2019-02-27 22:01:33 21 23 22
003911E7 2019-02-27 21:29:27 21.1 23 21.7
003911E7 2019-02-27 20:57:21 21.1 23 21.6
003911E7 2019-02-27 20:25:14 21.2 23 21.6
003911E7 2019-02-27 19:53:12 21.2 23 21.7
003911E7 2019-02-27 19:21:02 21.3 23 21.4
003911E7 2019-02-27 18:48:55 21.4 23 21.5
003911E7 2019-02-27 18:16:49 21.5 24 21.4
003911E7 2019-02-27 17:44:42 21.6 24 21.2
003911E7 2019-02-27 17:12:35 21.7 25 21.3
003911E7 2019-02-27 16:40:29 21.6 25 21.2
003911E7 2019-02-27 16:08:23 21.6 25 21.3
003911E7 2019-02-27 15:36:16 21.5 26 21.4
003911E7 2019-02-27 15:04:09 21.4 26 21.2
003911E7 2019-02-27 14:32:03 21.3 26 21
003911E7 2019-02-27 13:59:56 21.2 25 20.8
003911E7 2019-02-27 13:27:51 21.2 24 20.8
003911E7 2019-02-27 12:55:44 21.2 25 20.9
003911E7 2019-02-27 12:23:35 21.2 25 21.2
003911E7 2019-02-27 11:51:28 21.1 25 21.5
003911E7 2019-02-27 11:19:21 21.1 24 21.7
003911E7 2019-02-27 10:47:13 21 25 21.8
003911E7 2019-02-27 10:15:05 21 24 21.8
003911E7 2019-02-27 09:42:57 20.9 24 21.6
003911E7 2019-02-27 09:10:50 20.9 23 21.7
003911E7 2019-02-27 08:38:41 20.9 23 21.7
003911E7 2019-02-27 08:06:34 20.9 23 21.8
003911E7 2019-02-27 07:34:26 20.9 23 21.7
003911E7 2019-02-27 07:02:17 20.9 23 21.8
003911E7 2019-02-27 06:30:11 20.9 23 21.9
003911E7 2019-02-27 05:58:00 20.9 23 22.2
003911E7 2019-02-27 05:25:51 20.9 23 22.1
003911E7 2019-02-27 04:53:44 20.9 23 22.1
003911E7 2019-02-27 04:21:37 20.9 23 22.1
003911E7 2019-02-27 03:49:31 21 23 22
003911E7 2019-02-27 03:17:21 21 23 22.1
003911E7 2019-02-27 02:45:14 21 23 21.9
003911E7 2019-02-27 02:13:06 21 23 21.8
003911E7 2019-02-27 01:40:59 21.1 23 21.9
003911E7 2019-02-27 01:08:53 21.1 23 22
003911E7 2019-02-27 00:36:14 21.1 23 22.1
003911E7 2019-02-27 00:04:07 21.2 23 21.9
003911E7 2019-02-26 23:32:01 21.2 23 22.7
003911E7 2019-02-26 22:59:54 21.3 23 22.5
003911E7 2019-02-26 22:27:48 21.3 23 22.5
003911E7 2019-02-26 21:55:41 21.4 23 23.2
003911E7 2019-02-26 21:23:36 21.4 23 23.9
003911E7 2019-02-26 20:51:29 21.5 23 24.5
003911E7 2019-02-26 20:19:24 21.5 24 25
003911E7 2019-02-26 19:47:16 21.6 23 25.4
003911E7 2019-02-26 19:15:08 21.7 23 25.9
003911E7 2019-02-26 18:43:00 21.8 23 26.2
003911E7 2019-02-26 18:10:53 21.8 24 26.6
003911E7 2019-02-26 17:38:48 21.9 24 26.8
003911E7 2019-02-26 17:06:42 21.9 24 27.1
003911E7 2019-02-26 16:34:36 21.9 24 27.3
003911E7 2019-02-26 16:02:30 21.8 24 27.6
003911E7 2019-02-26 15:30:24 21.7 25 27.8
003911E7 2019-02-26 14:58:18 21.5 24 28.1
003911E7 2019-02-26 14:26:10 21.5 24 28.2
003911E7 2019-02-26 13:54:02 21.5 24 28.4
003911E7 2019-02-26 13:21:55 21.5 24 28.6
003911E7 2019-02-26 12:49:47 21.4 24 28.8
003911E7 2019-02-26 12:17:39 21.3 24 29
003911E7 2019-02-26 11:45:30 21.3 24 29.2
003911E7 2019-02-26 11:13:21 21.2 24 29.4
003911E7 2019-02-26 10:41:15 21.1 24 29.6
003911E7 2019-02-26 10:09:06 21 23 29.6
003911E7 2019-02-26 09:37:01 20.9 23 29.7
003911E7 2019-02-26 09:04:55 20.9 23 29.9
003911E7 2019-02-26 08:32:50 20.9 23 29.9
003911E7 2019-02-26 08:00:44 20.9 22 29.9
003911E7 2019-02-26 07:28:39 20.9 22 29.9
003911E7 2019-02-26 06:56:32 20.9 22 29.9
003911E7 2019-02-26 06:24:24 20.9 22 29.9
003911E7 2019-02-26 05:52:17 20.9 22 29.9
003911E7 2019-02-26 05:20:11 20.9 22 29.7
003911E7 2019-02-26 04:48:05 20.9 22 29.7
003911E7 2019-02-26 04:15:58 20.9 22 29.5
003911E7 2019-02-26 03:43:52 20.9 22 29.5
003911E7 2019-02-26 03:11:47 20.9 22 29.4
003911E7 2019-02-26 02:39:40 21 21 29.2
003911E7 2019-02-26 02:07:33 21 21 29
003911E7 2019-02-26 01:35:26 21 21 28.9
003911E7 2019-02-26 01:03:17 21 21 28.8
003911E7 2019-02-26 00:31:11 21 21 28.6
003911E7 2019-02-25 23:59:06 21.1 21 28.1
003911E7 2019-02-25 23:26:59 21.1 21 27.9
003911E7 2019-02-25 22:54:55 21.2 21 27.7
003911E7 2019-02-25 22:22:48 21.2 21 27.4
003911E7 2019-02-25 21:50:12 21.3 21 27.1
003911E7 2019-02-25 21:18:07 21.3 21 26.7
003911E7 2019-02-25 20:46:03 21.4 21 26.3
003911E7 2019-02-25 20:13:59 21.4 21 25.9
003911E7 2019-02-25 19:41:54 21.5 21 25.5
003911E7 2019-02-25 19:09:48 21.5 21 25
003911E7 2019-02-25 18:37:44 21.6 21 24.5
003911E7 2019-02-25 18:05:39 21.6 21 24
003911E7 2019-02-25 17:33:34 21.6 21 23.2
003911E7 2019-02-25 17:01:29 21.7 22 23.1
003911E7 2019-02-25 16:29:24 21.6 22 22.4
003911E7 2019-02-25 15:57:19 21.6 22 22.3
003911E7 2019-02-25 15:25:14 21.6 22 20.9
003911E7 2019-02-25 14:53:09 21.4 22 20.8
003911E7 2019-02-25 14:21:03 21.4 22 20.7
003911E7 2019-02-25 13:48:59 21.3 22 20.6
003911E7 2019-02-25 13:16:53 21.2 22 20.7
003911E7 2019-02-25 12:44:47 21.1 22 20.8
003911E7 2019-02-25 12:12:40 21 22 20.8
003911E7 2019-02-25 11:40:35 21 22 20.4
003911E7 2019-02-25 11:08:31 20.9 22 20.4
003911E7 2019-02-25 10:36:26 20.8 22 20.5
003911E7 2019-02-25 10:04:19 20.7 22 20.6
003911E7 2019-02-25 09:32:14 20.7 22 19.1
003911E7 2019-02-25 09:00:09 20.6 22 19.4
003911E7 2019-02-25 08:28:05 20.6 22 19.3
003911E7 2019-02-25 07:56:01 20.6 22 19.4
003911E7 2019-02-25 07:23:53 20.6 22 19.5
003911E7 2019-02-25 06:51:47 20.6 22 19.4
003911E7 2019-02-25 06:19:43 20.6 22 19.4
003911E7 2019-02-25 05:47:36 20.6 22 19.1
003911E7 2019-02-25 05:15:32 20.6 22 19.1
003911E7 2019-02-25 04:43:26 20.6 22 19.2
003911E7 2019-02-25 04:11:21 20.7 22 19
003911E7 2019-02-25 03:39:16 20.6 22 19.3
003911E7 2019-02-25 03:07:13 20.6 22 19.5
003911E7 2019-02-25 02:35:03 20.6 22 19.5
003911E7 2019-02-25 02:02:56 20.6 22 19.5
003911E7 2019-02-25 01:30:50 20.6 22 19.4
003911E7 2019-02-25 00:58:45 20.6 22 19.3
003911E7 2019-02-25 00:26:39 20.7 22 19.3
003911E7 2019-02-24 23:54:32 20.7 23 19.1
003911E7 2019-02-24 23:22:27 20.7 23 19.1
003911E7 2019-02-24 22:50:23 20.7 23 19.1
003911E7 2019-02-24 22:18:18 20.7 23 18.8
003911E7 2019-02-24 21:46:13 20.8 23 18.5
003911E7 2019-02-24 21:14:08 20.7 23 18.2
003911E7 2019-02-24 20:42:03 20.8 23 17.8
003911E7 2019-02-24 20:09:57 20.8 23 17.6
003911E7 2019-02-24 19:37:52 20.8 23 17.6
003911E7 2019-02-24 19:05:15 20.8 22 17.5
003911E7 2019-02-24 18:33:10 20.8 22 17.3
003911E7 2019-02-24 18:01:07 20.8 22 17.4
003911E7 2019-02-24 17:29:03 20.8 22 17.1
003911E7 2019-02-24 16:57:00 20.8 22 16.9
003911E7 2019-02-24 16:24:56 20.7 22 17.5
003911E7 2019-02-24 15:52:48 20.8 22 17.4
003911E7 2019-02-24 15:20:43 20.7 22 17.1
003911E7 2019-02-24 14:48:39 20.7 22 16.9
003911E7 2019-02-24 14:16:34 20.8 21 16.7
003911E7 2019-02-24 13:44:28 20.8 21 19.3
003911E7 2019-02-24 13:12:24 20.8 21 19.2
003911E7 2019-02-24 12:40:18 20.8 21 19.4
003911E7 2019-02-24 12:08:13 20.8 21 19.3
003911E7 2019-02-24 11:36:07 20.7 21 19.4
003911E7 2019-02-24 11:04:03 20.8 21 19.1
003911E7 2019-02-24 10:31:55 20.7 21 19.1
003911E7 2019-02-24 09:59:52 20.8 21 19.3
003911E7 2019-02-24 09:27:45 20.8 21 19.3
003911E7 2019-02-24 08:55:39 20.8 21 19.3
003911E7 2019-02-24 08:23:33 20.8 21 19.5
003911E7 2019-02-24 07:51:26 20.8 20 19.5
003911E7 2019-02-24 07:19:22 20.8 21 19.7
003911E7 2019-02-24 06:47:14 20.8 20 19.8
003911E7 2019-02-24 06:15:09 20.8 20 19.8
003911E7 2019-02-24 05:43:03 20.8 20 19.8
003911E7 2019-02-24 05:11:03 20.9 20 19.9
003911E7 2019-02-24 04:38:56 20.9 20 19.9
003911E7 2019-02-24 04:06:51 20.9 20 20.1
003911E7 2019-02-24 03:34:43 20.9 20 20.2
003911E7 2019-02-24 03:02:39 20.9 20 19.9
003911E7 2019-02-24 02:30:32 20.9 20 20.2
003911E7 2019-02-24 01:58:26 20.9 20 20.3
003911E7 2019-02-24 01:26:22 20.9 20 20.4
003911E7 2019-02-24 00:54:16 20.9 19 20.4
003911E7 2019-02-24 00:22:11 21 19 18.8
003911E7 2019-02-23 23:50:05 21 19 19.1
003911E7 2019-02-23 23:17:59 21 19 19.1
003911E7 2019-02-23 22:45:55 21 19 19.1
003911E7 2019-02-23 22:13:50 21 19 19
003911E7 2019-02-23 21:41:43 21.1 19 19.5
003911E7 2019-02-23 21:09:42 21.1 18 19.9
003911E7 2019-02-23 20:37:35 21.1 18 19.7
003911E7 2019-02-23 20:05:29 21.2 18 19.8
003911E7 2019-02-23 19:33:23 21.2 18 19.8
003911E7 2019-02-23 19:01:16 21.2 17 20
003911E7 2019-02-23 18:29:11 21.2 17 20.2
003911E7 2019-02-23 17:57:07 21.2 17 20.4
003911E7 2019-02-23 17:25:01 21.2 17 20.4
003911E7 2019-02-23 16:52:55 21.4 16 20.6
003911E7 2019-02-23 16:51:41 21.2 16 20.7
003911E7 2019-02-23 16:19:35 21.1 16 20.6
003911E7 2019-02-23 15:47:33 21.1 16 20.6
003911E7 2019-02-23 15:15:23 20.9 16 20.6
003911E7 2019-02-23 14:43:21 20.9 15 20.6
003911E7 2019-02-23 14:11:12 20.9 15 20.5
003911E7 2019-02-23 13:39:07 20.9 15 20.4
003911E7 2019-02-23 12:34:57 20.9 15 20.3
003911E7 2019-02-23 12:02:53 20.8 15 20.1
003911E7 2019-02-23 11:30:49 20.8 15 20.1
003911E7 2019-02-23 10:58:42 20.8 15 19.8
003911E7 2019-02-23 10:26:32 20.8 14 19.6
003911E7 2019-02-23 09:54:27 20.8 14 19.5
003911E7 2019-02-23 09:22:21 20.8 14 19.3
003911E7 2019-02-23 08:50:15 20.8 14 19.3
003911E7 2019-02-23 08:18:09 20.8 14 19
003911E7 2019-02-23 07:46:05 20.8 14 18.5
003911E7 2019-02-23 07:14:01 20.8 13 18.7
003911E7 2019-02-23 06:41:51 20.8 13 18.7
003911E7 2019-02-23 06:09:49 20.8 13 18.7
003911E7 2019-02-23 05:37:39 20.8 13 18.2
003911E7 2019-02-23 05:05:32 20.8 13 17.9
003911E7 2019-02-23 04:33:29 20.8 13 17.6
003911E7 2019-02-23 04:01:20 20.8 12 17.5
003911E7 2019-02-23 03:29:14 20.8 12 16.9
003911E7 2019-02-23 02:57:06 20.8 12 16.8
003911E7 2019-02-23 02:25:01 20.8 12 17.5
003911E7 2019-02-23 01:52:54 20.8 12 18
003911E7 2019-02-23 01:20:48 20.9 12 17.5
003911E7 2019-02-23 00:48:45 20.9 12 17.5
003911E7 2019-02-23 00:16:38 20.9 12 17.5
003911E7 2019-02-22 23:44:34 20.9 12 17.6
003911E7 2019-02-22 23:12:26 20.9 12 17.7
003911E7 2019-02-22 22:40:19 20.9 12 18
003911E7 2019-02-22 22:08:14 21 12 18.6
003911E7 2019-02-22 21:36:09 21 12 18.6
003911E7 2019-02-22 21:04:06 21 11 18.8
003911E7 2019-02-22 20:32:01 21.1 11 18.8
003911E7 2019-02-22 19:59:54 21.1 11 18.7
003911E7 2019-02-22 19:27:48 21.2 11 18.7
003911E7 2019-02-22 18:55:42 21.2 11 18.8
003911E7 2019-02-22 18:23:36 21.2 12 18.6
003911E7 2019-02-22 17:51:32 21.2 12 18.6
003911E7 2019-02-22 17:19:27 21.2 12 18.7
003911E7 2019-02-22 16:47:21 21.2 12 19
003911E7 2019-02-22 16:15:16 21.2 12 19.2
003911E7 2019-02-22 15:43:11 21.1 12 19.5
003911E7 2019-02-22 15:11:07 21 12 19.6
003911E7 2019-02-22 14:39:02 21.1 12 19.6
003911E7 2019-02-22 14:05:42 20.9 12 19.5
003911E7 2019-02-22 13:33:38 20.8 12 19.2
003911E7 2019-02-22 13:01:32 20.8 12 19
003911E7 2019-02-22 12:29:27 20.7 13 19
003911E7 2019-02-22 11:57:21 20.7 13 19.4
003911E7 2019-02-22 11:25:17 20.6 13 19.4
003911E7 2019-02-22 10:53:12 20.6 13 19.6
003911E7 2019-02-22 10:21:07 20.5 13 19.4
003911E7 2019-02-22 09:49:00 20.5 13 19.5
003911E7 2019-02-22 09:16:55 20.4 13 19.7
003911E7 2019-02-22 08:44:49 20.4 13 19.4
003911E7 2019-02-22 08:12:42 20.5 13 19.4
003911E7 2019-02-22 07:40:36 20.5 13 19
003911E7 2019-02-22 07:08:30 20.5 13 19.1
003911E7 2019-02-22 06:36:21 20.5 13 19.1
003911E7 2019-02-22 06:04:14 20.5 13 19.2
003911E7 2019-02-22 05:32:07 20.6 13 19.5
003911E7 2019-02-22 04:59:59 20.5 13 19.3
003911E7 2019-02-22 04:27:55 20.6 13 19.4
003911E7 2019-02-22 03:55:47 20.6 13 20.9
003911E7 2019-02-22 03:23:41 20.6 13 22
003911E7 2019-02-22 02:51:35 20.6 13 22.9
003911E7 2019-02-22 02:19:28 20.6 13 23.5
003911E7 2019-02-22 01:47:21 20.6 13 24.1
003911E7 2019-02-22 01:15:15 20.7 13 24.7
003911E7 2019-02-22 00:43:09 20.7 13 25.3
003911E7 2019-02-22 00:11:02 20.7 13 25.3
003911E7 2019-02-21 23:38:57 20.7 13 25.2
003911E7 2019-02-21 23:06:53 20.7 13 25.2
003911E7 2019-02-21 22:34:48 20.7 13 25.1
003911E7 2019-02-21 22:02:43 20.8 13 25.1
003911E7 2019-02-21 21:30:35 20.9 13 25
003911E7 2019-02-21 20:58:32 20.9 13 25
003911E7 2019-02-21 20:26:28 20.9 13 24.9
003911E7 2019-02-21 19:54:18 21 13 24.8
003911E7 2019-02-21 19:22:11 21 13 24.8
003911E7 2019-02-21 18:50:04 21.1 13 24.8
003911E7 2019-02-21 18:17:57 21.2 13 24.8
003911E7 2019-02-21 17:45:52 21.2 14 24.8
003911E7 2019-02-21 17:13:46 21.1 14 24.8
003911E7 2019-02-21 16:41:41 21 14 24.7
003911E7 2019-02-21 16:09:36 20.8 14 24.7
003911E7 2019-02-21 15:37:31 20.8 14 24.7
003911E7 2019-02-21 14:01:20 20.7 14 24
003911E7 2019-02-21 13:29:10 20.6 14 23.3
003911E7 2019-02-21 12:57:03 20.6 14 22.4
003911E7 2019-02-21 12:24:56 20.9 15 21.2
003911E7 2019-02-21 12:23:42 20.6 15 19.7
003911E7 2019-02-21 11:51:35 20.6 15 17.4
003911E7 2019-02-21 11:19:29 20.6 15 12.3
003911E7 2019-02-21 10:47:23 20.6 15 13.3
003911E7 2019-02-21 10:15:17 20.6 16 14.1
003911E7 2019-02-21 09:43:14 20.6 16 15.2
003911E7 2019-02-21 09:11:09 20.6 16 15.3
003911E7 2019-02-21 08:06:56 20.6 17 15.6
003911E7 2019-02-21 07:34:51 20.6 17 15.7
003911E7 2019-02-21 07:02:46 20.6 18 15.9
003911E7 2019-02-21 06:30:43 20.6 18 16.5
003911E7 2019-02-21 05:58:38 20.6 18 16.5
003911E7 2019-02-21 05:26:33 20.6 18 16.4
003911E7 2019-02-21 04:54:29 20.6 18 16.4
003911E7 2019-02-21 04:22:22 20.7 18 16.6
003911E7 2019-02-21 03:50:16 20.7 18 16.6
003911E7 2019-02-21 03:18:14 20.7 18 16.8
003911E7 2019-02-21 02:46:06 20.7 19 16.7
003911E7 2019-02-21 02:13:59 20.7 19 19.4
003911E7 2019-02-21 01:41:53 20.7 19 19.4
003911E7 2019-02-21 01:09:49 20.7 19 19.4
003911E7 2019-02-21 00:37:48 20.7 19 21
003911E7 2019-02-21 00:05:41 20.7 19 21.1
003911E7 2019-02-20 23:33:33 20.7 19 22.2
003911E7 2019-02-20 23:01:28 20.7 20 23.2
003911E7 2019-02-20 22:29:24 20.7 20 23.2
003911E7 2019-02-20 21:57:19 20.8 20 23.9
003911E7 2019-02-20 21:25:12 20.8 20 24.6
003911E7 2019-02-20 20:53:07 20.8 20 24.5
003911E7 2019-02-20 20:21:06 20.8 20 24.5
003911E7 2019-02-20 19:48:56 20.8 20 24.4
003911E7 2019-02-20 19:16:52 20.8 20 24.6
003911E7 2019-02-20 18:44:44 20.8 20 24.5
003911E7 2019-02-20 18:12:38 20.8 20 24.6
003911E7 2019-02-20 17:40:32 20.9 20 24.7
003911E7 2019-02-20 17:08:26 20.9 21 24.7
003911E7 2019-02-20 16:36:20 20.9 22 24.7
003911E7 2019-02-20 16:04:15 20.8 22 24.8
003911E7 2019-02-20 15:32:07 20.8 22 24.8
003911E7 2019-02-20 15:00:02 20.8 22 24.8
003911E7 2019-02-20 14:27:56 20.8 23 24.8